{"data":{"norad_id":59932,"intl_designator":"2024-106L","name":"STARLINK-31432","alt_names":[],"object_type":"PAYLOAD","status":"ACTIVE","operator":null,"country":"US","launch_date":"2024-06-01","launch_site_code":"AFETR","launch_vehicle":null,"mission":null,"orbit_class":"UNKNOWN","rcs_meters":null,"size_class":null,"mass_kg":null,"dimensions":null,"purposes":["comms"],"wikipedia_slug":null,"has_3d_model":false,"image_url":null,"decayed_at":null,"tle_current":{"epoch":"2026-09-21T19:09:07.088544Z","epoch_age_seconds":62380,"freshness":"FRESH","line1":"1 59932U 24106L   26264.79799871  .00006665  00000+0  25151-3 0  9997","line2":"2 59932  42.9999 305.1243 0000865 245.6567 114.4194 15.27580041130500","mean_motion":15.27580041,"eccentricity":8.65e-5,"inclination_deg":42.9999,"raan_deg":305.1243,"arg_perigee_deg":245.6567,"mean_anomaly_deg":114.4194,"bstar":0.00025151,"rev_number":13050,"period_min":94.266746183547,"perigee_km":482.45548068422,"apogee_km":483.6424658576,"semimajor_km":6861.1859732709,"source":"CELESTRAK","updated_at":"2026-09-22T09:00:49.112724Z"}}}